This is the latest recevied weather packets stored in our database for station/object SP1BMW-13. If no packets are shown the sender has not sent any weather packets the latest 10 day(s).
| Time | Temp. | Humidity | Pressure | Rain* | Wind** | Luminosity | Snow |
|---|---|---|---|---|---|---|---|
| 1787641836 | 16.11° C | 97% | 1019.2 hPa | 0 mm | 0 m/s | 116 W/m² | - |
| 1787641778 | 16.11° C | 98% | 1019.2 hPa | 0 mm | 0 m/s | 115 W/m² | - |
| 1787641716 | 16.11° C | 98% | 1019.2 hPa | 0 mm | 0 m/s | 114 W/m² | - |
| 1787641656 | 16.11° C | 98% | 1019.1 hPa | 0 mm | 0.45 m/s, 286° | 112 W/m² | - |
| 1787641597 | 15.56° C | 98% | 1019.2 hPa | 0 mm | 0 m/s | 110 W/m² | - |
| 1787641537 | 15.56° C | 98% | 1019 hPa | 0 mm | 0 m/s | 109 W/m² | - |
| 1787641476 | 15.56° C | 98% | 1019 hPa | 0 mm | 0.45 m/s, 351° | 108 W/m² | - |
| 1787641416 | 15.56° C | 98% | 1019.1 hPa | 0 mm | 0 m/s | 106 W/m² | - |
| 1787641357 | 15° C | 98% | 1019.1 hPa | 0 mm | 0 m/s | 105 W/m² | - |
| 1787641296 | 15° C | 98% | 1019 hPa | 0 mm | 0 m/s | 104 W/m² | - |
| 1787641237 | 15° C | 98% | 1019.2 hPa | 0 mm | 0.45 m/s, 292° | 104 W/m² | - |
| 1787641177 | 15° C | 98% | 1019.1 hPa | 0 mm | 0.45 m/s, 240° | 103 W/m² | - |
| 1787641116 | 15° C | 98% | 1019.1 hPa | 0 mm | 0.89 m/s, 310° | 101 W/m² | - |
| 1787641057 | 15° C | 98% | 1019.1 hPa | 0 mm | 0.45 m/s, 321° | 99 W/m² | - |
| 1787640997 | 15° C | 98% | 1019 hPa | 0 mm | 0.45 m/s, 187° | 98 W/m² | - |
| 1787640937 | 15° C | 98% | 1019 hPa | 0 mm | 0.45 m/s, 238° | 98 W/m² | - |
| 1787640876 | 15° C | 98% | 1019 hPa | 0 mm | 0.45 m/s, 293° | 97 W/m² | - |
| 1787640818 | 15° C | 98% | 1019 hPa | 0 mm | 0.45 m/s, 280° | 97 W/m² | - |
| 1787640758 | 15° C | 98% | 1018.8 hPa | 0 mm | 0.89 m/s, 308° | 97 W/m² | - |
| 1787640696 | 15° C | 98% | 1019.1 hPa | 0 mm | 0.89 m/s, 306° | 96 W/m² | - |
| 1787640637 | 15° C | 98% | 1018.9 hPa | 0 mm | 0.89 m/s, 300° | 96 W/m² | - |
| 1787640576 | 15° C | 98% | 1019 hPa | 0 mm | 0.45 m/s, 319° | 94 W/m² | - |
| 1787640517 | 15° C | 98% | 1018.9 hPa | 0 mm | 0.45 m/s, 279° | 92 W/m² | - |
| 1787640456 | 15° C | 98% | 1019 hPa | 0 mm | 0 m/s | 92 W/m² | - |
| 1787640400 | 15° C | 98% | 1019 hPa | 0 mm | 0 m/s | 90 W/m² | - |
* Rain latest hour (hover to see other rain measurements)
** Current wind speed in m/s (hover to see current wind gust speed)